Flag for Mexico Weather past 2 weeks in Oaxaca, Oaxaca, Mexico

Now
66 °F

Mostly cloudy.


Feels Like: 66 °F
Forecast: 58 / 82 °F
Wind: 6 mph from North

Location: Oaxaca / Xoxocotlan

Current Time: Jul 3, 2015 at 3:48:02 AM

Latest Report: Jul 3, 2015 at 2:45 AM


Visibility: 7 mi

Pressure: 30.20 "Hg

Humidity: 68%

Dew point: 55 °F

Location of OaxacaLocation

Historic Weather in Oaxaca — Graph

°F

Oaxaca temperature yesterday

Maximum temperature yesterday: 81 °F (at 4:45 PM)
Minimum temperature yesterday: 63 °F (at 5:45 AM)
Average temperature yesterday: 71 °F

Past Weeks' High & Low Weather Summary

 TemperatureHumidityPressure
High84 °F (Jun 26, 4:45 PM)94% (Jun 18, 2:45 AM)30.33 "Hg (Jun 18, 2:45 AM)
Low55 °F (Jun 25, 6:58 AM)26% (Jun 22, 3:46 PM)29.66 "Hg (Jul 2, 3:48 PM)
Average68 °F67%30.12 "Hg
* Reported Jun 18 2:45 AM — Jul 3 2:45 AM, Oaxaca, Weather by CustomWeather, © 2015

Note: Actual official high and low records may vary slightly from our data, if they occured in-between our weather recording intervals... More about our weather records

Advertising

Oaxaca weather history for previous 24 hours

 ConditionsComfort  
Time TempWeatherWind HumidityBarometerVisibility
2:45 AM
Fri, Jul 3
66 °FMostly cloudy.6 mph68%30.20 "Hg7 mi
1:45 AM66 °FMostly cloudy.6 mph68%30.21 "Hg7 mi
12:45 AM70 °FMostly cloudy.6 mph53%29.84 "Hg7 mi
11:45 PM
Thu, Jul 2
72 °FMostly cloudy.6 mph47%30.22 "Hg7 mi
10:45 PM70 °FMostly cloudy.No wind60%30.20 "Hg7 mi
9:45 PM72 °FMostly cloudy.No wind57%29.70 "Hg7 mi
8:45 PM72 °FPartly sunny.9 mph53%30.13 "Hg7 mi
7:45 PM72 °FPartly sunny.7 mph53%30.09 "Hg8 mi
5:45 PM79 °FPartly sunny.6 mph39%30.09 "Hg12 mi
4:45 PM81 °FBroken clouds.No wind39%30.10 "Hg12 mi
3:48 PM79 °FPartly sunny.6 mph42%29.66 "Hg12 mi
2:48 PM79 °FPartly sunny.No wind39%30.14 "Hg12 mi
1:45 PM79 °FPartly sunny.7 mph42%30.17 "Hg12 mi
12:47 PM75 °FBroken clouds.6 mph44%29.83 "Hg10 mi
9:58 AM68 °FPassing clouds.7 mph64%29.88 "Hg10 mi
7:54 AM64 °FPartly cloudy.7 mph73%30.22 "Hg7 mi
5:45 AM63 °FPartly cloudy.7 mph83%30.19 "Hg7 mi
4:48 AM64 °FMostly cloudy.No wind88%30.19 "Hg7 mi
3:45 AM64 °FMostly cloudy.No wind94%29.72 "Hg7 mi
Weather by CustomWeather, © 2015

See weather overviewHow to use our weather pages